Weather History for St. Johnsbury, VT

Change the Weather History Date:

Tuesday, November 6, 2012

  Actual Average Record
Temperature  
Mean Temperature 28 °F 40 °F  
Max Temperature 36 °F 49 °F 72 °F (1948)
Min Temperature 20 °F 31 °F 8 °F (1953)
Degree Days  
Heating Degree Days 37 25  
Month to date heating degree days 165 145  
Since 1 July heating degree days 892 932  
Moisture  
Dew Point 16 °F    
Average Humidity 61    
Maximum Humidity 84    
Minimum Humidity 38    
Precipitation  
Precipitation 0.00 in 0.12 in 1.05 in (2007)
Month to date precipitation 0.03 0.73  
Year to date precipitation 29.72 33.75  
Sea Level Pressure  
Sea Level Pressure 30.21 in    
Wind  
Wind Speed - (North)    
Max Wind Speed -    
Max Gust Speed -    
T = Trace of Precipitation, MM = Missing Value Source: NWS Daily Summary

Daily Weather History Graph

Daily Weather History Graph

Search for Another Location

Airport:

Trip Planner

Search our weather history database for the weather conditions in past years. The results will help you decide how hot, cold, wet, or windy it might be!

Date:

Astronomy

Nov. 06, 2012 Rise Set
Actual Time 6:32 AM EST 4:30 PM EST
Civil Twilight 6:01 AM EST 5:00 PM EST
Nautical Twilight 5:27 AM EST 5:35 PM EST
Astronomical Twilight 4:53 AM EST 6:09 PM EST
Moon 11:09 PM EST (11/6) 12:21 PM EST (11/6)
Length of Visible Light 10h 58m
Length of Day
9h 57m
Waning Gibbous, 53% of the Moon is Illuminated
Nov 6
Waning Gibbous
Nov 6
Last Quarter
Nov 13
New
Nov 20
First Quarter
Nov 28
Full

Hourly Weather History & Observations

Time (EST) Temp. Dew Point Humidity Pressure Visibility Wind Dir Wind Speed Gust Speed Precip Events Conditions
12:54 AM 28.0 °F 19.0 °F 69% 30.13 in - North - - N/A   Unknown
1:54 AM 27.0 °F 19.0 °F 72% 30.14 in - North - - N/A   Unknown
2:54 AM 27.0 °F 19.9 °F 75% 30.14 in - North - - N/A   Unknown
3:54 AM 26.1 °F 21.0 °F 81% 30.15 in - North - - N/A   Unknown
4:54 AM 26.1 °F 18.0 °F 71% 30.17 in - North - - N/A   Unknown
5:54 AM 25.0 °F 15.1 °F 66% 30.19 in - North - - N/A   Unknown
6:54 AM 24.1 °F 14.0 °F 65% 30.20 in - North - - N/A   Unknown
7:54 AM 26.1 °F 14.0 °F 60% 30.22 in - North - - N/A   Unknown
8:54 AM 27.0 °F 14.0 °F 58% 30.22 in - North - - N/A   Unknown
9:54 AM 30.0 °F 12.9 °F 49% 30.23 in - North - - N/A   Unknown
10:54 AM 32.0 °F 12.9 °F 45% 30.23 in - North - - N/A   Unknown
11:54 AM 32.0 °F 12.9 °F 45% 30.22 in - North - - N/A   Unknown
12:54 PM 35.1 °F 14.0 °F 42% 30.20 in - North - - N/A   Unknown
1:54 PM 35.1 °F 12.9 °F 40% 30.20 in - North - - N/A   Unknown
2:54 PM 35.1 °F 12.9 °F 40% 30.19 in - North - - N/A   Unknown
3:54 PM 35.1 °F 14.0 °F 42% 30.19 in - North - - N/A   Unknown
4:54 PM 30.9 °F 16.0 °F 54% 30.21 in - North - - N/A   Unknown
5:54 PM 28.9 °F 17.1 °F 61% 30.23 in - North - - N/A   Unknown
6:54 PM 27.0 °F 18.0 °F 69% 30.23 in - North - - N/A   Unknown
7:54 PM 26.1 °F 19.0 °F 75% 30.25 in - North - - N/A   Unknown
8:54 PM 24.1 °F 19.0 °F 81% 30.26 in - North - - N/A   Unknown
9:54 PM 23.0 °F 18.0 °F 81% 30.25 in - North - - N/A   Unknown
10:54 PM 21.9 °F 18.0 °F 85% 30.25 in - North - - N/A   Unknown
11:54 PM 19.9 °F 17.1 °F 89% 30.23 in - North - - N/A   Unknown